Voltar ao catálogo

IUS R/B(2)

AtivoGEO
NORAD 24740·ROCKET BODY·🇺🇸 United States

Lançado Feb 23, 1997 de Cape Canaveral Space Force Station

Loading…

TLE

AtualizadoSource: Space-Track

Época: Sep 13, 2026, 15:38 UTC

1 24740U 97008D   26256.65196334 -.00000350  00000-0  00000-0 0  9998
2 24740  14.6660   3.2877 0024935 200.7699 159.1472  0.99502213 26676

Acompanhe IUS R/B(2) em tempo real com AllMySat

Download on the App Store